Tracking 25949 objects as of 8-Aug-2022
HD Live streaming from Space Station
objects crossing your sky now

COSMOS 1275 DEB

Track COSMOS 1275 DEB now!
10-day predictions


NORAD ID: 14364
Int'l Code: 1981-053JA
Perigee: 836.2 km
Apogee: 887.9 km
Inclination: 82.8 °
Period: 102.0 minutes
Semi major axis: 7233 km
RCS: 0.0121 m2 (small)
Launch date: June 4, 1981
Source: Commonwealth of Independent States (former USSR) (CIS)
Launch site: PLESETSK MISSILE AND SPACE COMPLEX (PKMTR)

Note: This is SATELLITE DEBRIS
aabbcc
Your satellite tracking list
Your tracking list is empty




NASA's NSSDC Master Catalog

Two Line Element Set (TLE):
1 14364U 81053HX  22220.27893134  .00001291  00000-0  70129-3 0  9995
2 14364  82.7849 341.2530 0035764 112.2496 248.2479 14.11306946 27961
Source of the keplerian elements: AFSPC